Meteo Giornale » Osservazioni meteo Messico » Mexico City-Licenci

ore: 10:42 - Osservazioni Meteo Mexico City-Licenci
Lat. 19° 26' N Lon. 99° 6' W Alt. 2238 metri s.l.m.

coperto America/Mexico_City

16 °C

Coperto

Temp. 24 Ore

14 °C

20 °C

Nord/NOvest

16.7 Km/h

Dew point 9 °C

Umidità 63 %

Visibilità  13 Km

Il sole sorge alle ore 07:30

Il sole tramonta alle ore 19:11

Data e Ora Cielo e Fenomeni T °C DP °C Um. % Pres. hPa Vis. km Vento km/h
Oggi h: 10:42 coperto Coperto 16 9 63 1028 13 N/NO 16.7
Oggi h: 09:41 molto_nuvoloso Molto Nuvoloso 15 10 72 1028 13 N 16.7
Oggi h: 08:41 molto_nuvoloso Molto Nuvoloso 15 10 72 1027 13 N 16.7
Oggi h: 07:40 molto_nuvoloso Molto Nuvoloso 14 10 76 1027 14 N 16.7
Oggi h: 06:47 molto_nuvoloso Molto Nuvoloso 15 10 72 1026 10 N 25.9
Oggi h: 05:45 molto_nuvoloso Molto Nuvoloso 15 10 72 1026 19 N 18.5
Oggi h: 04:51 molto_nuvoloso Molto Nuvoloso 15 11 76 1026 19 NO 18.5
Oggi h: 03:46 molto_nuvoloso Molto Nuvoloso 15 12 82 1026 19 N 18.5
Oggi h: 01:54 molto_nuvoloso Molto Nuvoloso 15 10 72 1027 10 N 14.8
Oggi h: 00:53 molto_nuvoloso Molto Nuvoloso 15 10 72 1027 14 N/NO 7.4
Ieri h: 23:54 molto_nuvoloso Molto Nuvoloso 15 10 72 1028 13 N/NO 9.3
Ieri h: 22:54 molto_nuvoloso Molto Nuvoloso 15 10 72 1027 13 NO 11.1
Ieri h: 21:43 molto_nuvoloso Molto Nuvoloso 15 11 76 1027 13 N/NE 16.7
Ieri h: 20:59 coperto Coperto 16 11 72 1026 14 N 20.3
Ieri h: 20:57 coperto_pioggia Pioggia Debole 16 11 72 1026 14 N 20.3
Ieri h: 20:45 coperto_pioggia Pioggia Debole 16 11 72 1026 14 NE 22.2
Ieri h: 20:30 coperto_pioggia Pioggia Debole 16 11 72 1026 14 N/NE 27.8
Ieri h: 19:49 coperto Coperto 16 11 72 1025 14 NE 22.2
Ieri h: 19:47 coperto Coperto 16 11 72 1025 14 N/NE 16.7
Ieri h: 18:50 coperto_pioggia Pioggia Debole 18 10 59 1025 14 N/NE 22.2
Ieri h: 18:48 coperto_pioggia Pioggia Debole 18 10 59 1025 14 NE 22.2
Ieri h: 17:44 coperto Coperto 19 10 55 1024 14 N/NE 22.2
Ieri h: 16:47 coperto Coperto 19 10 55 1024 14 NE 25.9
Ieri h: 15:45 coperto Coperto 20 9 49 1024 10 N/NE 20.3
Ieri h: 14:45 coperto Coperto 19 9 52 1025 10 N/NE 16.7
Ieri h: 13:52 coperto Coperto 19 9 52 1026 10 N 18.5
Ieri h: 12:47 coperto Coperto 18 10 59 1027 13 NO 16.7
Ieri h: 11:46 coperto Coperto 17 10 63 1028 13 N 14.8